User: anonymous   Login
Location: Bernadets
(43.3537°N, 0.3167°E)
Time: 09:53:06
(UTC+00:00)
Language:

Cosmos 2278 Rocket - Orbit

View from above orbital plane
View from above orbital plane
View from above satellite
View from above satellite

Ground track
Ground track

The orbit data is extracted from the following two-line orbital elements,

1 23088U 94023B   22017.71226829  .00000319  00000-0  19056-3 0  9995
2 23088  71.0004   5.2791 0001265  54.2112 305.9128 14.14698181432233
Epoch (UTC): 17 January 2022 17:05:39
Eccentricity: 0.0001265
inclination: 71.0004°
perigee height: 842 km
apogee height: 844 km
right ascension of ascending node: 5.2791°
argument of perigee: 54.2112°
revolutions per day: 14.14698181
mean anomaly at epoch: 305.9128°
orbit number at epoch: 43223

The dashed part of the orbit path shows where the satellite is in the earth's shadow,  

DLR